Location: Monteux
(44.0348°N, 4.9972°E)
Time: 16:31:28
(UTC+00:00)

Cosmos 2112 Rocket - Pass Details

Date: 30 November 2020
Orbit: 756 x 787 km, 74.1° (Epoch: 17 January)

Event Time Altitude Azimuth Distance (km) Brightness Sun altitude
Rises 18:37:52 0° 197° (SSW) 3,226 7.5 -27.1°
Reaches altitude 10° 18:40:13 10° 197° (SSW) 2,309 6.7 -27.5°
Enters shadow 18:44:14 54° 193° (SSW) 936 4.4 -28.3°
